When you browse on this site, cookies collect data to enhance your experience and personalize the content and advertising you see.
Visit our Privacy Policy to learn more. By continuing to use the site, you agree to this use of cookies and data.
  • In Denmark
  • List of Countries
  • For 7 days
  • Water Temperature
  • Weather Map
  • Weather Widgets
  • user-avatar
    Login

    Hourly Weather Molyatichi

    Today, 20 October, Sunday

    Time Temperature Precipitation Wind Pressure Humidity
    00:00 +12°C° 0 mm 3 mps 748 mmHg 85%
    01:00 +12°C° 0 mm 3 mps 748 mmHg 85%
    02:00 +12°C° 0 mm 3 mps 748 mmHg 84%
    03:00 +11°C° 0 mm 3 mps 748 mmHg 86%
    04:00 +11°C° 0 mm 3 mps 748 mmHg 87%
    05:00 +10°C° 0 mm 3 mps 748 mmHg 89%
    06:00 +10°C° 0 mm 3 mps 748 mmHg 87%
    07:00 +11°C° 0 mm 3 mps 749 mmHg 85%
    08:00 +11°C° 0 mm 3 mps 749 mmHg 83%
    09:00 +12°C° 0 mm 3 mps 749 mmHg 79%
    10:00 +13°C° 0 mm 3 mps 749 mmHg 75%
    11:00 +16°C° 0 mm 3 mps 749 mmHg 71%
    12:00 +16°C° 0 mm 3 mps 749 mmHg 72%
    13:00 +17°C° 0 mm 3 mps 749 mmHg 72%
    14:00 +17°C° 0 mm 3 mps 749 mmHg 73%
    15:00 +16°C° 0 mm 3 mps 749 mmHg 75%
    16:00 +16°C° 0 mm 2 mps 749 mmHg 78%
    17:00 +15°C° 0 mm 2 mps 749 mmHg 80%
    18:00 +14°C° 0 mm 3 mps 749 mmHg 81%
    19:00 +13°C° 0 mm 3 mps 749 mmHg 82%
    20:00 +13°C° 0 mm 3 mps 749 mmHg 83%
    21:00 +13°C° 0 mm 3 mps 749 mmHg 83%
    22:00 +12°C° 0 mm 3 mps 749 mmHg 83%
    23:00 +12°C° 0 mm 3 mps 749 mmHg 84%

    Tomorrow, 21 October, Monday

    Time Temperature Precipitation Wind Pressure Humidity
    00:00 +12°C° 0 mm 3 mps 749 mmHg 85%
    01:00 +11°C° 0 mm 3 mps 749 mmHg 87%
    02:00 +11°C° 0 mm 3 mps 749 mmHg 89%
    03:00 +11°C° 0 mm 3 mps 749 mmHg 90%
    04:00 +11°C° 0 mm 3 mps 749 mmHg 91%
    05:00 +10°C° 0 mm 3 mps 749 mmHg 92%
    06:00 +11°C° 0 mm 3 mps 749 mmHg 91%
    07:00 +11°C° 0 mm 3 mps 749 mmHg 90%
    08:00 +12°C° 0 mm 3 mps 749 mmHg 90%
    09:00 +13°C° 0 mm 3 mps 749 mmHg 86%
    10:00 +14°C° 0 mm 3 mps 749 mmHg 82%
    11:00 +16°C° 0 mm 3 mps 750 mmHg 78%
    12:00 +17°C° 0 mm 3 mps 750 mmHg 76%
    13:00 +18°C° 0 mm 3 mps 750 mmHg 74%
    14:00 +18°C° 0 mm 3 mps 750 mmHg 72%
    15:00 +17°C° 0 mm 3 mps 750 mmHg 77%
    16:00 +16°C° 0 mm 2 mps 750 mmHg 83%
    17:00 +15°C° 0 mm 2 mps 750 mmHg 88%
    18:00 +14°C° 0 mm 1 mps 750 mmHg 89%
    19:00 +14°C° 0 mm 1 mps 750 mmHg 90%
    20:00 +12°C° 0 mm 0 mps 750 mmHg 91%
    21:00 +12°C° 0 mm 0 mps 750 mmHg 91%
    22:00 +12°C° 0 mm 0 mps 750 mmHg 92%
    23:00 +12°C° 0 mm 0 mps 750 mmHg 92%

    Day after tomorrow, 22 October, Tuesday

    Time Temperature Precipitation Wind Pressure Humidity
    00:00 +13°C° 0 mm 1 mps 750 mmHg 92%
    01:00 +13°C° 0 mm 1 mps 751 mmHg 92%
    02:00 +12°C° 0 mm 1 mps 751 mmHg 92%
    03:00 +12°C° 0 mm 1 mps 751 mmHg 93%
    04:00 +12°C° 0 mm 1 mps 751 mmHg 93%
    05:00 +12°C° 0 mm 1 mps 751 mmHg 93%
    06:00 +12°C° 0 mm 1 mps 751 mmHg 93%
    07:00 +12°C° 0 mm 1 mps 751 mmHg 93%
    08:00 +12°C° 0 mm 2 mps 751 mmHg 93%
    09:00 +14°C° 0 mm 2 mps 751 mmHg 88%
    10:00 +15°C° 0 mm 2 mps 751 mmHg 83%
    11:00 +16°C° 0 mm 2 mps 751 mmHg 78%
    12:00 +17°C° 0 mm 2 mps 751 mmHg 76%
    13:00 +17°C° 0 mm 2 mps 751 mmHg 74%
    14:00 +19°C° 0 mm 1 mps 751 mmHg 72%
    15:00 +18°C° 0 mm 1 mps 751 mmHg 77%
    16:00 +15°C° 0 mm 1 mps 751 mmHg 81%
    17:00 +14°C° 0 mm 1 mps 750 mmHg 86%
    18:00 +14°C° 0 mm 1 mps 750 mmHg 87%
    19:00 +14°C° 0 mm 1 mps 750 mmHg 88%
    20:00 +13°C° 0 mm 1 mps 750 mmHg 90%
    21:00 +13°C° 0 mm 1 mps 750 mmHg 90%
    22:00 +13°C° 0 mm 1 mps 750 mmHg 91%
    23:00 +12°C° 0 mm 1 mps 750 mmHg 91%

    23 October, Wednesday

    Time Temperature Precipitation Wind Pressure Humidity
    00:00 +12°C° 0 mm 1 mps 750 mmHg 91%
    01:00 +12°C° 0 mm 2 mps 750 mmHg 92%
    02:00 +12°C° 0 mm 2 mps 750 mmHg 92%
    03:00 +12°C° 0 mm 2 mps 750 mmHg 93%
    04:00 +12°C° 0 mm 2 mps 750 mmHg 93%
    05:00 +10°C° 0 mm 2 mps 750 mmHg 94%
    06:00 +12°C° 0 mm 2 mps 749 mmHg 93%
    07:00 +12°C° 0 mm 2 mps 749 mmHg 93%
    08:00 +12°C° 0 mm 2 mps 749 mmHg 93%
    09:00 +12°C° 0 mm 3 mps 749 mmHg 88%
    10:00 +14°C° 0 mm 3 mps 748 mmHg 84%
    11:00 +15°C° 0 mm 4 mps 748 mmHg 79%
    12:00 +15°C° 0 mm 4 mps 748 mmHg 78%
    13:00 +17°C° 0 mm 4 mps 747 mmHg 77%
    14:00 +17°C° 0 mm 4 mps 747 mmHg 75%
    15:00 +15°C° 0 mm 4 mps 747 mmHg 80%
    16:00 +14°C° 0 mm 3 mps 747 mmHg 84%
    17:00 +13°C° 0 mm 3 mps 746 mmHg 89%
    18:00 +13°C° 0.3 mm 3 mps 746 mmHg 90%
    19:00 +14°C° 0.3 mm 2 mps 746 mmHg 92%
    20:00 +14°C° 0.3 mm 2 mps 747 mmHg 93%
    21:00 +12°C° 0.4 mm 3 mps 747 mmHg 94%
    22:00 +12°C° 0.4 mm 3 mps 747 mmHg 94%
    23:00 +11°C° 0.4 mm 3 mps 747 mmHg 95%

    24 October, Thursday

    Time Temperature Precipitation Wind Pressure Humidity
    00:00 +11°C° 0 mm 3 mps 747 mmHg 94%
    01:00 +10°C° 0 mm 3 mps 747 mmHg 94%
    02:00 +9°C° 0 mm 2 mps 748 mmHg 94%
    03:00 +8°C° 0 mm 2 mps 748 mmHg 94%
    04:00 +8°C° 0 mm 2 mps 748 mmHg 94%
    05:00 +7°C° 0 mm 2 mps 748 mmHg 94%
    06:00 +7°C° 0 mm 2 mps 748 mmHg 93%
    07:00 +7°C° 0 mm 2 mps 749 mmHg 91%
    08:00 +7°C° 0 mm 2 mps 749 mmHg 90%
    09:00 +8°C° 0 mm 2 mps 749 mmHg 85%
    10:00 +9°C° 0 mm 3 mps 749 mmHg 79%
    11:00 +10°C° 0 mm 3 mps 749 mmHg 73%
    12:00 +10°C° 0 mm 3 mps 749 mmHg 72%
    13:00 +10°C° 0 mm 3 mps 749 mmHg 71%
    14:00 +11°C° 0 mm 3 mps 749 mmHg 70%
    15:00 +10°C° 0 mm 2 mps 749 mmHg 75%
    16:00 +9°C° 0 mm 2 mps 749 mmHg 80%
    17:00 +8°C° 0 mm 1 mps 749 mmHg 85%
    18:00 +8°C° 0 mm 1 mps 749 mmHg 86%
    19:00 +8°C° 0 mm 1 mps 749 mmHg 88%
    20:00 +7°C° 0 mm 1 mps 749 mmHg 89%
    21:00 +7°C° 0 mm 1 mps 749 mmHg 90%
    22:00 +7°C° 0 mm 1 mps 749 mmHg 90%
    23:00 +6°C° 0 mm 0 mps 749 mmHg 90%

    25 October, Friday

    Time Temperature Precipitation Wind Pressure Humidity
    00:00 +6°C° 0 mm 1 mps 749 mmHg 90%
    01:00 +6°C° 0 mm 1 mps 749 mmHg 90%
    02:00 +6°C° 0 mm 1 mps 750 mmHg 90%
    03:00 +6°C° 0 mm 1 mps 749 mmHg 90%
    04:00 +6°C° 0 mm 1 mps 749 mmHg 90%
    05:00 +6°C° 0 mm 1 mps 749 mmHg 90%
    06:00 +6°C° 0 mm 1 mps 750 mmHg 89%
    07:00 +6°C° 0 mm 1 mps 750 mmHg 88%
    08:00 +5°C° 0 mm 2 mps 750 mmHg 87%
    09:00 +7°C° 0 mm 2 mps 750 mmHg 81%
    10:00 +9°C° 0 mm 2 mps 750 mmHg 74%
    11:00 +10°C° 0 mm 2 mps 750 mmHg 68%
    12:00 +12°C° 0 mm 2 mps 750 mmHg 67%
    13:00 +12°C° 0 mm 3 mps 749 mmHg 66%
    14:00 +12°C° 0 mm 3 mps 749 mmHg 65%
    15:00 +11°C° 0 mm 3 mps 749 mmHg 70%
    16:00 +10°C° 0 mm 3 mps 748 mmHg 76%
    17:00 +9°C° 0 mm 3 mps 748 mmHg 81%
    18:00 +9°C° 0 mm 3 mps 748 mmHg 83%
    19:00 +9°C° 0 mm 3 mps 748 mmHg 85%
    20:00 +7°C° 0 mm 4 mps 748 mmHg 87%
    21:00 +7°C° 0 mm 4 mps 748 mmHg 88%
    22:00 +8°C° 0 mm 4 mps 747 mmHg 90%
    23:00 +8°C° 0 mm 4 mps 747 mmHg 91%
    Show more